This demonstration page uses our WeatherBlox Daily Observations layout. Learn more.

Hourly Observations for September 28, 2018

Temp ( °F °C ) Dew Point ( °F °C ) Humidity (%) Winds ( mph kmh ) Pressure ( in mb ) Visibility ( mi km ) Precip ( " mm )
12:15 am 00:15 Clear 55 12.5 46 7.6 72 72 NE 14 22 30.06 1018 10 16.09344 0 0
12:35 am 00:35 Clear 53 11.9 46 7.6 75 75 NE 10 17 30.09 1019 10 16.09344 0 0
12:55 am 00:55 Clear 53 11.6 46 7.7 77 77 NE 17 28 30.06 1018 10 16.09344 0 0
1:15 am 01:15 Clear 52 11.2 46 7.7 79 79 NNE 13 20 30.06 1018 10 16.09344 0 0
1:35 am 01:35 Clear 51 10.8 46 7.7 81 81 NE 13 20 30.06 1018 10 16.09344 0 0
1:55 am 01:55 Clear 51 10.6 46 8 84 84 NE 13 20 30.06 1018 10 16.09344 0 0
2:15 am 02:15 Clear 51 10.8 47 8.2 84 84 NE 12 19 30.09 1019 10 16.09344 0 0
2:35 am 02:35 Clear 51 10.7 47 8.1 84 84 NE 14 22 30.12 1020 10 16.09344 0 0
2:55 am 02:55 Clear 51 10.5 46 8 85 85 NNE 14 22 30.12 1020 10 16.09344 0 0
3:15 am 03:15 Clear 51 10.3 46 7.5 83 83 NNE 16 26 30.09 1019 10 16.09344 0 0
3:35 am 03:35 Clear 50 10.1 46 7.5 84 84 NE 14 22 30.15 1021 10 16.09344 0 0
3:55 am 03:55 Partly Cloudy 50 10 45 7 82 82 NE 9 15 30.15 1021 10 16.09344 0 0
4:15 am 04:15 Mostly Cloudy 50 9.8 45 7.2 84 84 NNE 17 28 30.15 1021 10 16.09344 0 0
4:35 am 04:35 Partly Cloudy 49 9.5 43 6.2 80 80 NNE 17 28 30.15 1021 10 16.09344 0 0
4:55 am 04:55 Partly Cloudy 49 9.2 43 6.1 81 81 NNE 18 30 30.15 1021 10 16.09344 0 0
5:15 am 05:15 Mostly Cloudy 47 8.6 42 5.5 81 81 NNE 21 33 30.15 1021 10 16.09344 0 0
5:35 am 05:35 Partly Cloudy 47 8.1 40 4.4 78 78 NNE 21 33 30.15 1021 10 16.09344 0 0
5:55 am 05:55 Partly Cloudy 46 8 40 4.7 80 80 NNE 16 26 30.18 1022 10 16.09344 0 0
6:15 am 06:15 Partly Cloudy 46 7.6 40 4.5 81 81 NNE 17 28 30.18 1022 10 16.09344 0 0
6:35 am 06:35 Clear 46 7.5 39 4.1 79 79 NNE 18 30 30.24 1024 10 16.09344 0 0
6:55 am 06:55 Mostly Cloudy 45 7.3 38 3.6 78 78 NNE 20 31 30.24 1024 10 16.09344 0 0
7:15 am 07:15 Cloudy 45 7.3 38 3.6 78 78 NNE 18 30 30.24 1024 10 16.09344 0 0
7:35 am 07:35 Cloudy 45 7.2 38 3.5 78 78 NNE 20 31 30.27 1025 10 16.09344 0 0
7:55 am 07:55 Cloudy 45 7.2 38 3.5 78 78 NNE 15 24 30.27 1025 10 16.09344 0 0
8:15 am 08:15 Cloudy 45 7.2 38 3.3 77 77 NNE 18 30 30.27 1025 10 16.09344 0 0
8:35 am 08:35 Cloudy 45 7.3 38 3.4 77 77 NNE 17 28 30.27 1025 10 16.09344 0 0
8:55 am 08:55 Cloudy 46 7.6 39 3.7 77 77 NNE 16 26 30.27 1025 10 16.09344 0 0
9:15 am 09:15 Cloudy 46 7.6 38 3.6 76 76 NNE 18 30 30.3 1026 10 16.09344 0 0
9:35 am 09:35 Cloudy 46 7.7 38 3.6 76 76 NNE 16 26 30.3 1026 10 16.09344 0 0
9:55 am 09:55 Cloudy 46 7.9 38 3.5 74 74 NNE 16 26 30.3 1026 10 16.09344 0 0
10:15 am 10:15 Cloudy 46 8 38 3.5 74 74 NNE 16 26 30.33 1027 10 16.09344 0 0
10:35 am 10:35 Cloudy 46 8 38 3.5 74 74 NNE 20 31 30.33 1027 10 16.09344 0 0
10:55 am 10:55 Cloudy 46 8 38 3.5 74 74 NNE 17 28 30.33 1027 10 16.09344 0 0
11:15 am 11:15 Cloudy 47 8.1 38 3.5 73 73 NNE 16 26 30.33 1027 10 16.09344 0 0
11:35 am 11:35 Cloudy 47 8.4 38 3.4 71 71 NNE 18 30 30.36 1028 10 16.09344 0 0
11:55 am 11:55 Cloudy 46 8 38 3.1 71 71 NNE 20 31 30.36 1028 10 16.09344 0 0
12:15 pm 12:15 Cloudy 47 8.2 38 3.3 72 72 NNE 16 26 30.36 1028 10 16.09344 0 0
12:35 pm 12:35 Cloudy 47 8.1 38 3.1 71 71 NNE 16 26 30.36 1028 10 16.09344 0 0
12:55 pm 12:55 Cloudy 47 8.2 38 3.1 71 71 NE 15 24 30.36 1028 10 16.09344 0 0
1:15 pm 13:15 Cloudy 47 8.5 37 3 69 69 NE 12 19 30.36 1028 10 16.09344 0 0
1:35 pm 13:35 Cloudy 47 8.6 37 2.9 68 68 NE 18 30 30.36 1028 10 16.09344 0 0
1:55 pm 13:55 Cloudy 48 8.8 37 3 67 67 NE 14 22 30.33 1027 10 16.09344 0 0
2:15 pm 14:15 Cloudy 48 8.9 38 3.2 68 68 ENE 12 19 30.33 1027 10 16.09344 0 0
2:35 pm 14:35 Cloudy 48 8.8 37 3 67 67 NE 14 22 30.33 1027 10 16.09344 0 0
2:55 pm 14:55 Cloudy 49 9.3 38 3.3 66 66 ENE 13 20 30.3 1026 10 16.09344 0 0
3:15 pm 15:15 Cloudy 49 9.7 38 3.3 65 65 ENE 14 22 30.3 1026 10 16.09344 0 0
3:35 pm 15:35 Cloudy 49 9.7 38 3.3 65 65 ENE 9 15 30.3 1026 10 16.09344 0 0
3:55 pm 15:55 Cloudy 50 10 38 3.4 64 64 NE 13 20 30.3 1026 10 16.09344 0 0
4:15 pm 16:15 Cloudy 50 10 38 3.4 64 64 NNE 9 15 30.3 1026 10 16.09344 0 0
4:35 pm 16:35 Cloudy 50 9.8 38 3.1 63 63 ENE 12 19 30.3 1026 10 16.09344 0 0
4:55 pm 16:55 Cloudy 50 10 38 3.3 63 63 ENE 9 15 30.3 1026 10 16.09344 0 0
5:15 pm 17:15 Cloudy 50 10 37 3 62 62 NE 9 15 30.3 1026 10 16.09344 0 0
5:35 pm 17:35 Cloudy 49 9.5 37 2.8 63 63 NE 8 13 30.3 1026 10 16.09344 0 0
5:55 pm 17:55 Cloudy 49 9.5 37 2.8 63 63 ENE 8 13 30.3 1026 10 16.09344 0 0
6:15 pm 18:15 Cloudy 49 9.5 37 2.8 63 63 ENE 8 13 30.3 1026 10 16.09344 0 0
6:35 pm 18:35 Cloudy 49 9.5 37 3 64 64 ENE 8 13 30.27 1025 10 16.09344 0 0
6:55 pm 18:55 Cloudy 49 9.3 37 3 65 65 ENE 8 13 30.3 1026 10 16.09344 0 0
7:15 pm 19:15 Cloudy 49 9.3 37 2.9 65 65 E 6 9 30.3 1026 10 16.09344 0 0
7:35 pm 19:35 Cloudy 48 9 37 2.9 66 66 ENE 7 11 30.3 1026 10 16.09344 0 0
7:55 pm 19:55 Cloudy 48 9 37 3 66 66 ENE 6 9 30.3 1026 10 16.09344 0 0
8:15 pm 20:15 Cloudy 48 8.8 37 3 67 67 NE 6 9 30.3 1026 10 16.09344 0 0
8:35 pm 20:35 Cloudy 48 8.7 37 3 68 68 ENE 6 9 30.3 1026 10 16.09344 0 0
8:55 pm 20:55 Cloudy 47 8.6 38 3.2 69 69 NE 5 7 30.3 1026 10 16.09344 0 0
9:15 pm 21:15 Cloudy 47 8.5 38 3.1 69 69 ENE 3 6 30.33 1027 10 16.09344 0 0
9:35 pm 21:35 Cloudy 47 8.5 38 3.2 70 70 ENE 5 7 30.33 1027 10 16.09344 0 0
9:55 pm 21:55 Cloudy 47 8.3 38 3.3 71 71 ENE 5 7 30.33 1027 10 16.09344 0 0
10:15 pm 22:15 Cloudy 47 8.3 38 3.4 72 72 E 5 7 30.33 1027 10 16.09344 0 0
10:35 pm 22:35 Cloudy 47 8.3 39 4 75 75 Calm 30.33 1027 10 16.09344 0 0
10:55 pm 22:55 Cloudy 47 8.3 39 4 75 75 SE 5 7 30.33 1027 10 16.09344 0 0
11:15 pm 23:15 Cloudy 47 8.2 39 4.1 76 76 SE 3 6 30.33 1027 10 16.09344 0 0
11:35 pm 23:35 Cloudy 47 8.1 39 4.1 76 76 SSE 5 7 30.33 1027 10 16.09344 0 0
11:55 pm 23:55 Cloudy 46 8 39 4.1 77 77 SSE 6 9 30.33 1027 10 16.09344 0 0

Powered by AerisWeather